TimeMST,TemperatureF,Dew PointF,Humidity,Sea Level PressureIn,VisibilityMPH,Wind Direction,Wind SpeedMPH,Gust SpeedMPH,PrecipitationIn,Events,Conditions,WindDirDegrees,DateUTC
12:53 AM,6.1,-0.0,76,30.50,10.0,NNE,9.2,-,N/A,,Mostly Cloudy,20,2011-12-05 07:53:00
1:53 AM,5.0,-0.0,80,30.52,10.0,North,5.8,-,N/A,,Mostly Cloudy,350,2011-12-05 08:53:00
2:53 AM,3.9,-0.9,80,30.54,10.0,North,5.8,-,N/A,,Mostly Cloudy,10,2011-12-05 09:53:00
3:53 AM,3.9,-2.0,76,30.53,10.0,North,5.8,-,N/A,,Mostly Cloudy,10,2011-12-05 10:53:00
4:53 AM,3.0,-2.0,80,30.55,10.0,East,3.5,-,N/A,,Mostly Cloudy,80,2011-12-05 11:53:00
5:53 AM,3.0,-2.0,80,30.54,10.0,ENE,3.5,-,N/A,,Overcast,60,2011-12-05 12:53:00
6:53 AM,3.0,-2.0,80,30.56,10.0,Calm,Calm,-,N/A,,Overcast,0,2011-12-05 13:53:00
7:53 AM,3.0,-2.0,80,30.56,10.0,Calm,Calm,-,N/A,,Mostly Cloudy,0,2011-12-05 14:53:00
8:53 AM,3.9,-0.9,80,30.58,10.0,South,4.6,-,N/A,,Overcast,170,2011-12-05 15:53:00
9:53 AM,5.0,-0.0,80,30.58,10.0,ESE,5.8,-,N/A,,Mostly Cloudy,110,2011-12-05 16:53:00
10:53 AM,5.0,-0.9,76,30.57,10.0,East,5.8,-,N/A,,Mostly Cloudy,100,2011-12-05 17:53:00
11:53 AM,6.1,-0.9,73,30.53,10.0,ESE,8.1,-,N/A,,Mostly Cloudy,110,2011-12-05 18:53:00
12:53 PM,7.0,-0.0,73,30.49,10.0,ESE,5.8,-,N/A,,Mostly Cloudy,120,2011-12-05 19:53:00
1:53 PM,7.0,-0.0,73,30.47,10.0,East,4.6,-,N/A,,Scattered Clouds,90,2011-12-05 20:53:00
2:53 PM,6.8,-0.4,72,30.21,10.0,NE,8.1,-,N/A,,Scattered Clouds,50,2011-12-05 21:53:00
3:53 PM,3.0,-4.0,73,30.48,10.0,NE,8.1,-,N/A,,Partly Cloudy,50,2011-12-05 22:53:00
4:53 PM,1.0,-4.0,79,30.50,10.0,NE,4.6,-,N/A,,Partly Cloudy,40,2011-12-05 23:53:00
5:53 PM,1.0,-2.9,83,30.50,10.0,Calm,Calm,-,N/A,,Partly Cloudy,0,2011-12-06 00:53:00
6:53 PM,-2.0,-5.1,87,30.52,10.0,SSE,4.6,-,N/A,,Clear,160,2011-12-06 01:53:00
7:53 PM,-0.0,-4.0,83,30.51,10.0,SSE,5.8,-,N/A,,Clear,160,2011-12-06 02:53:00
8:53 PM,-0.9,-7.1,75,30.50,10.0,South,5.8,-,N/A,,Partly Cloudy,170,2011-12-06 03:53:00
9:53 PM,-0.9,-6.0,79,30.47,10.0,South,4.6,-,N/A,,Partly Cloudy,190,2011-12-06 04:53:00
10:53 PM,-0.9,-6.0,79,30.45,10.0,SW,5.8,-,N/A,,Partly Cloudy,220,2011-12-06 05:53:00
11:53 PM,-0.9,-7.1,75,30.42,10.0,SW,9.2,-,N/A,,Clear,220,2011-12-06 06:53:00